^^
Saratoga-Weather Station Historical Data
Daily Summary for April 18, 2020 Units:  Metric    English   Both
Daily Weekly Monthly Yearly Custom
  High: Low: Average:
Temperature: 22.9 °C 7.4 °C 16.4 °C
Dew Point: 11.7 °C 5.4 °C 8.4 °C
Humidity: 88% 37% 62%
Wind Speed: 19.5km/h 0km/h 3.8km/h
Wind Gust: 19.3km/h - -
Wind- - WSW
Pressure: 1023.7 hPa 1021.0 hPa -
Precipitation: 0.0 mm    
Historical Graphs
 
 
Tabular Data for April 18, 2020
Time Temperature Dew Point Pressure Wind Wind Speed Wind Gust Humidity Rainfall Rate (Hourly) solar
00:01 12.3 °C 7 °C 1022.4 hPa WNW 1.4 km/h 1.6 km/h 70% 0.0 mm 0 W/m2
00:06 12.3 °C 7.2 °C 1022.7 hPa Calm   1.6 km/h 71% 0.0 mm 0 W/m2
00:11 12.2 °C 7.1 °C 1022.7 hPa Calm     71% 0.0 mm 0 W/m2
00:17 12.2 °C 7.1 °C 1022.7 hPa Calm     71% 0.0 mm 0 W/m2
00:22 12.1 °C 7 °C 1022.7 hPa Calm     71% 0.0 mm 0 W/m2
00:27 12.1 °C 7 °C 1022.7 hPa Calm     71% 0.0 mm 0 W/m2
00:32 11.9 °C 6.8 °C 1022.7 hPa Calm     71% 0.0 mm 0 W/m2
00:37 11.9 °C 6.8 °C 1022.7 hPa Calm     71% 0.0 mm 0 W/m2
00:42 11.8 °C 6.7 °C 1022.7 hPa Calm     71% 0.0 mm 0 W/m2
00:47 11.7 °C 6.8 °C 1022.7 hPa Calm     72% 0.0 mm 0 W/m2
00:52 11.7 °C 6.8 °C 1022.7 hPa Calm     72% 0.0 mm 0 W/m2
00:57 11.6 °C 6.7 °C 1022.7 hPa Calm   1.6 km/h 72% 0.0 mm 0 W/m2
01:02 11.4 °C 6.7 °C 1022.7 hPa Calm     73% 0.0 mm 0 W/m2
01:07 11.3 °C 6.6 °C 1022.7 hPa Calm     73% 0.0 mm 0 W/m2
01:12 11.2 °C 6.7 °C 1022.7 hPa Calm     74% 0.0 mm 0 W/m2
01:17 11.2 °C 6.7 °C 1023.0 hPa Calm     74% 0.0 mm 0 W/m2
01:22 11.1 °C 6.8 °C 1023.0 hPa Calm     75% 0.0 mm 0 W/m2
01:27 10.9 °C 6.6 °C 1022.7 hPa Calm     75% 0.0 mm 0 W/m2
01:32 10.8 °C 6.7 °C 1023.0 hPa Calm     76% 0.0 mm 0 W/m2
01:37 10.7 °C 6.8 °C 1023.0 hPa Calm   1.6 km/h 77% 0.0 mm 0 W/m2
01:42 10.6 °C 6.9 °C 1023.0 hPa WNW 1.4 km/h 1.6 km/h 78% 0.0 mm 0 W/m2
01:47 10.5 °C 6.8 °C 1023.0 hPa Calm   1.6 km/h 78% 0.0 mm 0 W/m2
01:52 10.4 °C 6.7 °C 1023.0 hPa Calm     78% 0.0 mm 0 W/m2
01:57 10.3 °C 6.6 °C 1023.0 hPa WNW 1.4 km/h 1.6 km/h 78% 0.0 mm 0 W/m2
02:02 10.2 °C 6.7 °C 1023.0 hPa Calm   1.6 km/h 79% 0.0 mm 0 W/m2
02:07 10.2 °C 6.7 °C 1023.0 hPa Calm     79% 0.0 mm 0 W/m2
02:12 10.1 °C 6.6 °C 1023.0 hPa Calm     79% 0.0 mm 0 W/m2
02:17 9.9 °C 6.6 °C 1023.0 hPa Calm   1.6 km/h 80% 0.0 mm 0 W/m2
02:22 9.8 °C 6.5 °C 1023.0 hPa Calm   1.6 km/h 80% 0.0 mm 0 W/m2
02:27 9.7 °C 6.6 °C 1023.0 hPa Calm     81% 0.0 mm 0 W/m2
02:32 9.7 °C 6.6 °C 1023.0 hPa WNW 1.4 km/h 1.6 km/h 81% 0.0 mm 0 W/m2
02:37 9.6 °C 6.5 °C 1023.0 hPa Calm     81% 0.0 mm 0 W/m2
02:42 9.6 °C 6.5 °C 1023.0 hPa Calm   1.6 km/h 81% 0.0 mm 0 W/m2
02:47 9.5 °C 6.4 °C 1023.0 hPa Calm     81% 0.0 mm 0 W/m2
02:52 9.4 °C 6.3 °C 1023.0 hPa Calm   1.6 km/h 81% 0.0 mm 0 W/m2
02:57 9.4 °C 6.3 °C 1023.0 hPa Calm     81% 0.0 mm 0 W/m2
03:02 9.4 °C 6.5 °C 1023.0 hPa Calm   3.2 km/h 82% 0.0 mm 0 W/m2
03:07 9.3 °C 6.4 °C 1023.0 hPa Calm     82% 0.0 mm 0 W/m2
03:12 9.3 °C 6.4 °C 1023.0 hPa Calm   3.2 km/h 82% 0.0 mm 0 W/m2
03:17 9.2 °C 6.3 °C 1023.0 hPa Calm     82% 0.0 mm 0 W/m2
03:22 9.2 °C 6.3 °C 1023.0 hPa Calm   3.2 km/h 82% 0.0 mm 0 W/m2
03:27 9.1 °C 6.2 °C 1023.0 hPa Calm   1.6 km/h 82% 0.0 mm 0 W/m2
03:32 9 °C 6.1 °C 1023.0 hPa Calm     82% 0.0 mm 0 W/m2
03:37 8.9 °C 6.2 °C 1023.0 hPa Calm     83% 0.0 mm 0 W/m2
03:42 8.9 °C 6.2 °C 1023.0 hPa Calm     83% 0.0 mm 0 W/m2
03:47 8.8 °C 6.1 °C 1023.0 hPa Calm     83% 0.0 mm 0 W/m2
03:52 8.8 °C 6.1 °C 1023.0 hPa Calm     83% 0.0 mm 0 W/m2
03:58 8.8 °C 6.1 °C 1023.0 hPa Calm   1.6 km/h 83% 0.0 mm 0 W/m2
04:03 8.7 °C 6 °C 1023.0 hPa Calm     83% 0.0 mm 0 W/m2
04:08 8.7 °C 6 °C 1023.0 hPa Calm     83% 0.0 mm 0 W/m2
04:13 8.7 °C 6 °C 1023.0 hPa Calm     83% 0.0 mm 0 W/m2
04:18 8.7 °C 6 °C 1023.0 hPa Calm     83% 0.0 mm 0 W/m2
04:23 8.6 °C 5.9 °C 1023.0 hPa Calm     83% 0.0 mm 0 W/m2
04:28 8.5 °C 5.8 °C 1023.0 hPa Calm     83% 0.0 mm 0 W/m2
04:33 8.5 °C 6 °C 1023.0 hPa Calm     84% 0.0 mm 0 W/m2
04:38 8.4 °C 5.9 °C 1023.0 hPa Calm   1.6 km/h 84% 0.0 mm 0 W/m2
04:43 8.4 °C 5.9 °C 1023.0 hPa Calm     84% 0.0 mm 0 W/m2
04:48 8.3 °C 5.8 °C 1023.0 hPa Calm   1.6 km/h 84% 0.0 mm 0 W/m2
04:53 8.3 °C 5.8 °C 1023.0 hPa Calm   1.6 km/h 84% 0.0 mm 0 W/m2
04:58 8.2 °C 5.7 °C 1023.0 hPa Calm     84% 0.0 mm 0 W/m2
05:03 8.1 °C 5.6 °C 1023.0 hPa Calm   1.6 km/h 84% 0.0 mm 0 W/m2
05:08 8.1 °C 5.7 °C 1023.0 hPa Calm     85% 0.0 mm 0 W/m2
05:13 8 °C 5.6 °C 1023.0 hPa Calm     85% 0.0 mm 0 W/m2
05:18 7.9 °C 5.5 °C 1023.0 hPa Calm     85% 0.0 mm 0 W/m2
05:23 7.8 °C 5.6 °C 1023.0 hPa Calm     86% 0.0 mm 0 W/m2
05:28 7.8 °C 5.6 °C 1023.0 hPa Calm     86% 0.0 mm 0 W/m2
05:33 7.8 °C 5.6 °C 1023.0 hPa Calm     86% 0.0 mm 0 W/m2
05:38 7.7 °C 5.5 °C 1023.0 hPa Calm     86% 0.0 mm 0 W/m2
05:43 7.6 °C 5.4 °C 1023.0 hPa Calm     86% 0.0 mm 0 W/m2
05:48 7.6 °C 5.4 °C 1023.0 hPa Calm     86% 0.0 mm 0 W/m2
05:53 7.5 °C 5.5 °C 1023.0 hPa Calm     87% 0.0 mm 5 W/m2
05:58 7.5 °C 5.5 °C 1023.0 hPa Calm     87% 0.0 mm 7 W/m2
06:03 7.4 °C 5.4 °C 1023.0 hPa Calm     87% 0.0 mm 9 W/m2
06:08 7.4 °C 5.5 °C 1023.0 hPa Calm     88% 0.0 mm 11 W/m2
06:13 7.5 °C 5.6 °C 1023.0 hPa Calm     88% 0.0 mm 12 W/m2
06:18 7.5 °C 5.6 °C 1023.0 hPa Calm     88% 0.0 mm 14 W/m2
06:23 7.6 °C 5.7 °C 1023.0 hPa Calm     88% 0.0 mm 16 W/m2
06:28 7.6 °C 5.7 °C 1023.4 hPa Calm     88% 0.0 mm 18 W/m2
06:33 7.6 °C 5.7 °C 1023.4 hPa Calm     88% 0.0 mm 19 W/m2
06:38 7.7 °C 5.8 °C 1023.4 hPa Calm     88% 0.0 mm 21 W/m2
06:43 7.8 °C 5.9 °C 1023.4 hPa Calm     88% 0.0 mm 21 W/m2
06:48 7.9 °C 6 °C 1023.4 hPa Calm     88% 0.0 mm 25 W/m2
06:53 7.9 °C 5.9 °C 1023.4 hPa Calm     87% 0.0 mm 26 W/m2
06:58 8.1 °C 6.1 °C 1023.4 hPa Calm     87% 0.0 mm 26 W/m2
07:03 8.1 °C 5.9 °C 1023.4 hPa Calm     86% 0.0 mm 28 W/m2
07:08 8.2 °C 6 °C 1023.4 hPa Calm     86% 0.0 mm 28 W/m2
07:13 8.3 °C 6.1 °C 1023.4 hPa Calm     86% 0.0 mm 30 W/m2
07:18 8.4 °C 6.2 °C 1023.4 hPa Calm     86% 0.0 mm 30 W/m2
07:24 8.6 °C 6.4 °C 1023.4 hPa Calm   1.6 km/h 86% 0.0 mm 32 W/m2
07:29 8.9 °C 6.7 °C 1023.4 hPa Calm   1.6 km/h 86% 0.0 mm 32 W/m2
07:34 9.2 °C 6.8 °C 1023.4 hPa NE 3.2 km/h 3.2 km/h 85% 0.0 mm 33 W/m2
07:39 9.5 °C 6.9 °C 1023.4 hPa ENE 1.4 km/h 3.2 km/h 84% 0.0 mm 33 W/m2
07:44 9.7 °C 7 °C 1023.4 hPa Calm   3.2 km/h 83% 0.0 mm 70 W/m2
07:49 9.9 °C 7 °C 1023.4 hPa Calm     82% 0.0 mm 239 W/m2
07:54 10.2 °C 7.3 °C 1023.4 hPa Calm   3.2 km/h 82% 0.0 mm 257 W/m2
07:59 10.7 °C 7.6 °C 1023.4 hPa Calm     81% 0.0 mm 272 W/m2
08:04 11.3 °C 7.8 °C 1023.4 hPa NE 1.4 km/h 1.6 km/h 79% 0.0 mm 285 W/m2
08:09 11.7 °C 7.8 °C 1023.4 hPa Calm   1.6 km/h 77% 0.0 mm 299 W/m2
08:14 12 °C 7.9 °C 1023.4 hPa Calm     76% 0.0 mm 311 W/m2
08:19 12.7 °C 8.4 °C 1023.7 hPa NE 1.4 km/h 3.2 km/h 75% 0.0 mm 323 W/m2
08:24 13.2 °C 8.3 °C 1023.7 hPa NE 4.7 km/h 4.8 km/h 72% 0.0 mm 339 W/m2
08:29 13.4 °C 8.5 °C 1023.7 hPa ENE 1.4 km/h 3.2 km/h 72% 0.0 mm 352 W/m2
08:34 13.5 °C 8.3 °C 1023.7 hPa NE 6.4 km/h 6.4 km/h 71% 0.0 mm 364 W/m2
08:39 13.4 °C 8.2 °C 1023.7 hPa ENE 3.2 km/h 4.8 km/h 71% 0.0 mm 376 W/m2
08:44 13.7 °C 8.7 °C 1023.4 hPa ENE 1.4 km/h 3.2 km/h 72% 0.0 mm 392 W/m2
08:49 13.9 °C 8.7 °C 1023.7 hPa Calm   3.2 km/h 71% 0.0 mm 404 W/m2
08:54 14 °C 8.6 °C 1023.7 hPa East 3.2 km/h 4.8 km/h 70% 0.0 mm 415 W/m2
08:59 14.3 °C 8.7 °C 1023.7 hPa ENE 3.2 km/h 4.8 km/h 69% 0.0 mm 429 W/m2
09:04 14.6 °C 9.2 °C 1023.7 hPa NE 1.4 km/h 4.8 km/h 70% 0.0 mm 438 W/m2
09:09 14.8 °C 9 °C 1023.7 hPa NE 1.4 km/h 6.4 km/h 68% 0.0 mm 452 W/m2
09:14 15.1 °C 9.2 °C 1023.7 hPa ENE 8 km/h 8 km/h 68% 0.0 mm 466 W/m2
09:19 15.2 °C 9.1 °C 1023.7 hPa East 3.2 km/h 8 km/h 67% 0.0 mm 476 W/m2
09:24 15.6 °C 9.7 °C 1023.7 hPa ESE 1.4 km/h 4.8 km/h 68% 0.0 mm 492 W/m2
09:29 16.1 °C 9.5 °C 1023.7 hPa East 9.7 km/h 9.7 km/h 65% 0.0 mm 504 W/m2
09:35 16.3 °C 9.2 °C 1023.7 hPa East 3.2 km/h 6.4 km/h 63% 0.0 mm 512 W/m2
09:40 16.6 °C 9.5 °C 1023.7 hPa ENE 3.2 km/h 4.8 km/h 63% 0.0 mm 527 W/m2
09:45 16.9 °C 9.3 °C 1023.7 hPa ENE 4.7 km/h 8 km/h 61% 0.0 mm 538 W/m2
09:50 17.2 °C 9.4 °C 1023.7 hPa SE 1.4 km/h 4.8 km/h 60% 0.0 mm 554 W/m2
09:55 17.3 °C 9.2 °C 1023.7 hPa ESE 1.4 km/h 3.2 km/h 59% 0.0 mm 564 W/m2
10:00 17.5 °C 8.9 °C 1023.7 hPa NE 3.2 km/h 4.8 km/h 57% 0.0 mm 577 W/m2
10:05 17.8 °C 9.4 °C 1023.7 hPa ENE 1.4 km/h 9.7 km/h 58% 0.0 mm 587 W/m2
10:10 17.9 °C 8.7 °C 1023.7 hPa Calm   4.8 km/h 55% 0.0 mm 598 W/m2
10:15 18 °C 8.8 °C 1023.7 hPa Calm   9.7 km/h 55% 0.0 mm 598 W/m2
10:20 18.2 °C 8.5 °C 1023.7 hPa ENE 1.4 km/h 3.2 km/h 53% 0.0 mm 113 W/m2
10:25 18.5 °C 8.5 °C 1023.7 hPa East 4.7 km/h 9.7 km/h 52% 0.0 mm 619 W/m2
10:30 18.8 °C 8.4 °C 1023.7 hPa Calm   1.6 km/h 51% 0.0 mm 642 W/m2
10:35 18.9 °C 8.5 °C 1023.7 hPa ESE 1.4 km/h 6.4 km/h 51% 0.0 mm 650 W/m2
10:40 19.1 °C 8.7 °C 1023.7 hPa East 4.7 km/h 4.8 km/h 51% 0.0 mm 664 W/m2
10:45 19.4 °C 9 °C 1023.7 hPa NNE 1.4 km/h 3.2 km/h 51% 0.0 mm 671 W/m2
10:50 19.7 °C 9 °C 1023.7 hPa ESE 1.4 km/h 3.2 km/h 50% 0.0 mm 664 W/m2
10:55 19.9 °C 9.2 °C 1023.7 hPa NNW 4.7 km/h 4.8 km/h 50% 0.0 mm 689 W/m2
11:00 19.9 °C 9.2 °C 1023.7 hPa North 4.7 km/h 6.4 km/h 50% 0.0 mm 670 W/m2
11:05 19.9 °C 8.9 °C 1023.4 hPa SW 3.2 km/h 6.4 km/h 49% 0.0 mm 680 W/m2
11:10 19.9 °C 9.5 °C 1023.4 hPa NW 6.4 km/h 9.7 km/h 51% 0.0 mm 684 W/m2
11:15 19.8 °C 8.8 °C 1023.7 hPa NNW 4.7 km/h 11.3 km/h 49% 0.0 mm 705 W/m2
11:20 19.7 °C 9 °C 1023.4 hPa WNW 11.1 km/h 11.3 km/h 50% 0.0 mm 726 W/m2
11:25 19.7 °C 9.3 °C 1023.7 hPa WNW 4.7 km/h 4.8 km/h 51% 0.0 mm 731 W/m2
11:30 19.9 °C 9.5 °C 1023.7 hPa WNW 3.2 km/h 12.9 km/h 51% 0.0 mm 740 W/m2
11:35 19.9 °C 9.2 °C 1023.7 hPa NNE 3.2 km/h 4.8 km/h 50% 0.0 mm 740 W/m2
11:40 20 °C 9.6 °C 1023.7 hPa NNW 3.2 km/h 12.9 km/h 51% 0.0 mm 752 W/m2
11:45 20.1 °C 9.4 °C 1023.4 hPa West 1.4 km/h 9.7 km/h 50% 0.0 mm 761 W/m2
11:51 19.9 °C 9.2 °C 1023.4 hPa NW 7.9 km/h 9.7 km/h 50% 0.0 mm 768 W/m2
11:56 19.9 °C 8.9 °C 1023.4 hPa WNW 4.7 km/h 9.7 km/h 49% 0.0 mm 773 W/m2
12:01 20.1 °C 8.7 °C 1023.4 hPa WNW 4.7 km/h 11.3 km/h 48% 0.0 mm 780 W/m2
12:06 20.2 °C 8.8 °C 1023.4 hPa WNW 7.9 km/h 12.9 km/h 48% 0.0 mm 793 W/m2
12:11 20.2 °C 8.8 °C 1023.4 hPa NW 6.4 km/h 6.4 km/h 48% 0.0 mm 791 W/m2
12:16 20.2 °C 8.8 °C 1023.4 hPa NW 4.7 km/h 9.7 km/h 48% 0.0 mm 770 W/m2
12:21 20.3 °C 8.9 °C 1023.4 hPa NW 6.4 km/h 9.7 km/h 48% 0.0 mm 800 W/m2
12:26 20.4 °C 9 °C 1023.4 hPa WNW 7.9 km/h 9.7 km/h 48% 0.0 mm 758 W/m2
12:31 20.4 °C 8.7 °C 1023.4 hPa NW 3.2 km/h 6.4 km/h 47% 0.0 mm 812 W/m2
12:36 20.6 °C 9.5 °C 1023.4 hPa NW 1.4 km/h 8 km/h 49% 0.0 mm 819 W/m2
12:41 20.6 °C 8.9 °C 1023.4 hPa WNW 11.1 km/h 14.5 km/h 47% 0.0 mm 821 W/m2
12:46 20.4 °C 8.7 °C 1023.4 hPa WNW 7.9 km/h 16.1 km/h 47% 0.0 mm 803 W/m2
12:51 20.4 °C 9 °C 1023.4 hPa WNW 6.4 km/h 9.7 km/h 48% 0.0 mm 830 W/m2
12:56 20.4 °C 8.7 °C 1023.4 hPa WSW 6.4 km/h 14.5 km/h 47% 0.0 mm 710 W/m2
13:01 20.4 °C 8.4 °C 1023.4 hPa WNW 13 km/h 12.9 km/h 46% 0.0 mm 733 W/m2
13:07 20.3 °C 7.6 °C 1023.4 hPa NW 3.2 km/h 4.8 km/h 44% 0.0 mm 831 W/m2
13:12 20.4 °C 7.7 °C 1023.4 hPa NW 3.2 km/h 17.7 km/h 44% 0.0 mm 831 W/m2
13:17 20.4 °C 8.4 °C 1023.4 hPa WNW 13 km/h 12.9 km/h 46% 0.0 mm 830 W/m2
13:22 20.4 °C 8.1 °C 1023.4 hPa West 9.7 km/h 11.3 km/h 45% 0.0 mm 826 W/m2
13:27 20.7 °C 8.7 °C 1023.4 hPa West 11.1 km/h 11.3 km/h 46% 0.0 mm 837 W/m2
13:32 20.7 °C 8.3 °C 1023.4 hPa WSW 3.2 km/h 12.9 km/h 45% 0.0 mm 835 W/m2
13:37 20.8 °C 8.4 °C 1023.4 hPa West 3.2 km/h 9.7 km/h 45% 0.0 mm 816 W/m2
13:42 20.9 °C 8.8 °C 1023.0 hPa WNW 4.7 km/h 12.9 km/h 46% 0.0 mm 814 W/m2
13:47 21 °C 8.9 °C 1023.0 hPa NNW 3.2 km/h 17.7 km/h 46% 0.0 mm 830 W/m2
13:52 21.2 °C 9.1 °C 1023.0 hPa West 9.7 km/h 12.9 km/h 46% 0.0 mm 824 W/m2
13:57 21.2 °C 9.4 °C 1023.0 hPa West 6.4 km/h 17.7 km/h 47% 0.0 mm 831 W/m2
14:02 21.2 °C 9.4 °C 1023.0 hPa WNW 4.7 km/h 12.9 km/h 47% 0.0 mm 796 W/m2
14:07 21.3 °C 9.8 °C 1023.0 hPa WNW 6.4 km/h 14.5 km/h 48% 0.0 mm 824 W/m2
14:12 21.3 °C 9.5 °C 1023.0 hPa WSW 3.2 km/h 6.4 km/h 47% 0.0 mm 819 W/m2
14:17 21.3 °C 10.2 °C 1023.0 hPa WNW 4.7 km/h 12.9 km/h 49% 0.0 mm 796 W/m2
14:22 21.7 °C 9.9 °C 1022.7 hPa NW 6.4 km/h 14.5 km/h 47% 0.0 mm 703 W/m2
14:27 21.8 °C 9.7 °C 1022.7 hPa WNW 9.7 km/h 11.3 km/h 46% 0.0 mm 765 W/m2
14:32 21.4 °C 9.3 °C 1022.7 hPa WNW 4.7 km/h 11.3 km/h 46% 0.0 mm 840 W/m2
14:38 21.6 °C 9.5 °C 1022.7 hPa NNE 1.4 km/h 8 km/h 46% 0.0 mm 842 W/m2
14:43 21.8 °C 9.3 °C 1022.4 hPa NW 4.7 km/h 11.3 km/h 45% 0.0 mm 745 W/m2
14:48 22.1 °C 9.6 °C 1022.4 hPa NNE 7.9 km/h 16.1 km/h 45% 0.0 mm 643 W/m2
14:53 21.9 °C 10.1 °C 1022.4 hPa NNE 1.4 km/h 4.8 km/h 47% 0.0 mm 636 W/m2
14:58 21.8 °C 9.7 °C 1022.4 hPa NW 6.4 km/h 11.3 km/h 46% 0.0 mm 643 W/m2
15:03 21.8 °C 9.7 °C 1022.4 hPa NNW 3.2 km/h 6.4 km/h 46% 0.0 mm 621 W/m2
15:08 21.8 °C 10.3 °C 1022.4 hPa NNW 1.4 km/h 1.6 km/h 48% 0.0 mm 800 W/m2
15:13 22.1 °C 10.6 °C 1022.4 hPa WNW 7.9 km/h 8 km/h 48% 0.0 mm 759 W/m2
15:18 22.2 °C 10.7 °C 1022.4 hPa West 9.7 km/h 12.9 km/h 48% 0.0 mm 671 W/m2
15:23 21.9 °C 10.4 °C 1022.0 hPa WSW 14.3 km/h 14.5 km/h 48% 0.0 mm 654 W/m2
15:28 21.8 °C 10.3 °C 1022.0 hPa West 4.7 km/h 12.9 km/h 48% 0.0 mm 645 W/m2
15:33 21.9 °C 10.7 °C 1022.0 hPa West 11.1 km/h 14.5 km/h 49% 0.0 mm 598 W/m2
15:38 21.9 °C 10.7 °C 1022.0 hPa West 9.7 km/h 9.7 km/h 49% 0.0 mm 659 W/m2
15:43 22.1 °C 10.9 °C 1022.0 hPa South 3.2 km/h 14.5 km/h 49% 0.0 mm 622 W/m2
15:48 22.2 °C 10.4 °C 1022.4 hPa South 4.7 km/h 16.1 km/h 47% 0.0 mm 693 W/m2
15:53 22.1 °C 10.3 °C 1022.4 hPa NW 3.2 km/h 6.4 km/h 47% 0.0 mm 696 W/m2
15:58 22.2 °C 10 °C 1022.0 hPa WSW 7.9 km/h 12.9 km/h 46% 0.0 mm 649 W/m2
16:04 22.1 °C 9.6 °C 1022.0 hPa West 4.7 km/h 8 km/h 45% 0.0 mm 673 W/m2
16:09 22.2 °C 10 °C 1022.0 hPa West 6.4 km/h 6.4 km/h 46% 0.0 mm 650 W/m2
16:14 22.3 °C 10.4 °C 1022.0 hPa WSW 13 km/h 14.5 km/h 47% 0.0 mm 675 W/m2
16:19 22.4 °C 9.9 °C 1022.0 hPa West 16.3 km/h 16.1 km/h 45% 0.0 mm 645 W/m2
16:24 22.4 °C 9.9 °C 1022.0 hPa WNW 3.2 km/h 12.9 km/h 45% 0.0 mm 650 W/m2
16:29 22.4 °C 10.2 °C 1022.0 hPa West 4.7 km/h 9.7 km/h 46% 0.0 mm 638 W/m2
16:34 22.4 °C 10.5 °C 1022.0 hPa WNW 13 km/h 12.9 km/h 47% 0.0 mm 628 W/m2
16:39 22.6 °C 9.4 °C 1022.0 hPa WSW 7.9 km/h 16.1 km/h 43% 0.0 mm 610 W/m2
16:44 22.4 °C 9.2 °C 1022.0 hPa West 3.2 km/h 16.1 km/h 43% 0.0 mm 515 W/m2
16:49 22.6 °C 9.4 °C 1022.0 hPa West 9.7 km/h 9.7 km/h 43% 0.0 mm 582 W/m2
16:54 22.6 °C 9.4 °C 1022.0 hPa NW 4.7 km/h 14.5 km/h 43% 0.0 mm 561 W/m2
16:59 22.6 °C 9.7 °C 1022.0 hPa WNW 7.9 km/h 12.9 km/h 44% 0.0 mm 557 W/m2
17:04 22.4 °C 8.9 °C 1022.0 hPa WSW 14.3 km/h 16.1 km/h 42% 0.0 mm 555 W/m2
17:09 22.5 °C 8.6 °C 1022.0 hPa WNW 19.5 km/h 19.3 km/h 41% 0.0 mm 554 W/m2
17:14 22.6 °C 8.7 °C 1022.0 hPa SW 4.7 km/h 11.3 km/h 41% 0.0 mm 541 W/m2
17:19 22.6 °C 7.6 °C 1022.0 hPa WNW 6.4 km/h 19.3 km/h 38% 0.0 mm 529 W/m2
17:24 22.7 °C 8 °C 1022.0 hPa NW 3.2 km/h 14.5 km/h 39% 0.0 mm 513 W/m2
17:29 22.8 °C 8.1 °C 1021.7 hPa WNW 14.3 km/h 17.7 km/h 39% 0.0 mm 503 W/m2
17:34 22.9 °C 8.6 °C 1021.7 hPa WSW 14.3 km/h 19.3 km/h 40% 0.0 mm 492 W/m2
17:39 22.8 °C 8.9 °C 1021.7 hPa WNW 11.1 km/h 14.5 km/h 41% 0.0 mm 478 W/m2
17:44 22.5 °C 8.6 °C 1021.7 hPa NW 3.2 km/h 12.9 km/h 41% 0.0 mm 466 W/m2
17:49 22.6 °C 8.3 °C 1021.7 hPa West 11.1 km/h 19.3 km/h 40% 0.0 mm 455 W/m2
17:54 22.6 °C 8.3 °C 1021.7 hPa NW 6.4 km/h 16.1 km/h 40% 0.0 mm 441 W/m2
17:59 22.6 °C 8.3 °C 1021.7 hPa WNW 6.4 km/h 11.3 km/h 40% 0.0 mm 427 W/m2
18:04 22.6 °C 8.3 °C 1021.7 hPa WNW 11.1 km/h 14.5 km/h 40% 0.0 mm 418 W/m2
18:09 22.7 °C 8 °C 1021.3 hPa West 9.7 km/h 16.1 km/h 39% 0.0 mm 403 W/m2
18:14 22.8 °C 8.1 °C 1021.3 hPa WSW 6.4 km/h 12.9 km/h 39% 0.0 mm 390 W/m2
18:19 22.8 °C 8.1 °C 1021.3 hPa West 9.7 km/h 12.9 km/h 39% 0.0 mm 378 W/m2
18:24 22.7 °C 8 °C 1021.3 hPa WNW 4.7 km/h 9.7 km/h 39% 0.0 mm 366 W/m2
18:29 22.9 °C 7.8 °C 1021.3 hPa NNW 7.9 km/h 12.9 km/h 38% 0.0 mm 352 W/m2
18:34 22.9 °C 8.2 °C 1021.3 hPa NNW 4.7 km/h 9.7 km/h 39% 0.0 mm 341 W/m2
18:39 22.8 °C 7.3 °C 1021.3 hPa NNW 3.2 km/h 11.3 km/h 37% 0.0 mm 323 W/m2
18:44 22.8 °C 7.3 °C 1021.3 hPa WSW 11.1 km/h 14.5 km/h 37% 0.0 mm 315 W/m2
18:49 22.7 °C 7.6 °C 1021.3 hPa West 4.7 km/h 9.7 km/h 38% 0.0 mm 302 W/m2
18:54 22.6 °C 7.6 °C 1021.0 hPa WNW 6.4 km/h 14.5 km/h 38% 0.0 mm 288 W/m2
18:59 22.6 °C 7.9 °C 1021.3 hPa NW 7.9 km/h 11.3 km/h 39% 0.0 mm 276 W/m2
19:04 22.6 °C 7.9 °C 1021.3 hPa West 6.4 km/h 12.9 km/h 39% 0.0 mm 264 W/m2
19:09 22.4 °C 7.8 °C 1021.3 hPa West 3.2 km/h 6.4 km/h 39% 0.0 mm 250 W/m2
19:14 22.5 °C 8.2 °C 1021.3 hPa WSW 4.7 km/h 9.7 km/h 40% 0.0 mm 237 W/m2
19:19 22.5 °C 8.6 °C 1021.3 hPa WSW 6.4 km/h 8 km/h 41% 0.0 mm 223 W/m2
19:24 22.4 °C 8.5 °C 1021.0 hPa West 4.7 km/h 6.4 km/h 41% 0.0 mm 207 W/m2
19:29 22.3 °C 8.8 °C 1021.3 hPa WNW 1.4 km/h 9.7 km/h 42% 0.0 mm 193 W/m2
19:34 22.3 °C 8.8 °C 1021.3 hPa WNW 4.7 km/h 8 km/h 42% 0.0 mm 181 W/m2
19:39 22.3 °C 9.1 °C 1021.3 hPa WSW 6.4 km/h 11.3 km/h 43% 0.0 mm 163 W/m2
19:44 22.2 °C 9.4 °C 1021.0 hPa West 4.7 km/h 8 km/h 44% 0.0 mm 149 W/m2
19:49 22.1 °C 9.3 °C 1021.3 hPa West 6.4 km/h 9.7 km/h 44% 0.0 mm 135 W/m2
19:54 22 °C 9.5 °C 1021.3 hPa WNW 4.7 km/h 6.4 km/h 45% 0.0 mm 116 W/m2
19:59 21.9 °C 9.8 °C 1021.3 hPa WNW 4.7 km/h 12.9 km/h 46% 0.0 mm 105 W/m2
20:04 21.8 °C 10 °C 1021.3 hPa SW 6.4 km/h 8 km/h 47% 0.0 mm 97 W/m2
20:09 21.7 °C 9.9 °C 1021.3 hPa WSW 4.7 km/h 12.9 km/h 47% 0.0 mm 83 W/m2
20:14 21.6 °C 10.1 °C 1021.3 hPa West 3.2 km/h 4.8 km/h 48% 0.0 mm 74 W/m2
20:19 21.6 °C 10.4 °C 1021.3 hPa NW 4.7 km/h 6.4 km/h 49% 0.0 mm 63 W/m2
20:24 21.4 °C 10.2 °C 1021.3 hPa WNW 4.7 km/h 6.4 km/h 49% 0.0 mm 53 W/m2
20:29 21.2 °C 10.4 °C 1021.3 hPa West 9.7 km/h 9.7 km/h 50% 0.0 mm 44 W/m2
20:34 21 °C 10.5 °C 1021.3 hPa WNW 4.7 km/h 9.7 km/h 51% 0.0 mm 35 W/m2
20:39 20.8 °C 10.6 °C 1021.3 hPa WSW 3.2 km/h 8 km/h 52% 0.0 mm 26 W/m2
20:44 20.6 °C 10.4 °C 1021.3 hPa West 11.1 km/h 11.3 km/h 52% 0.0 mm 19 W/m2
20:49 20.3 °C 10.4 °C 1021.3 hPa West 3.2 km/h 4.8 km/h 53% 0.0 mm 12 W/m2
20:54 20.1 °C 10.5 °C 1021.3 hPa SW 4.7 km/h 11.3 km/h 54% 0.0 mm 9 W/m2
20:59 19.8 °C 10.2 °C 1021.3 hPa WSW 4.7 km/h 9.7 km/h 54% 0.0 mm 7 W/m2
21:04 19.7 °C 10.4 °C 1021.3 hPa West 4.7 km/h 8 km/h 55% 0.0 mm 7 W/m2
21:09 19.5 °C 10.5 °C 1021.3 hPa West 3.2 km/h 9.7 km/h 56% 0.0 mm 5 W/m2
21:14 19.4 °C 10.4 °C 1021.3 hPa West 13 km/h 17.7 km/h 56% 0.0 mm 0 W/m2
21:19 19.3 °C 10.3 °C 1021.3 hPa WNW 4.7 km/h 11.3 km/h 56% 0.0 mm 0 W/m2
21:24 19.2 °C 10.5 °C 1021.3 hPa WSW 6.4 km/h 9.7 km/h 57% 0.0 mm 0 W/m2
21:29 19.2 °C 10.5 °C 1021.3 hPa WSW 6.4 km/h 17.7 km/h 57% 0.0 mm 0 W/m2
21:34 19.1 °C 10.4 °C 1021.3 hPa West 11.1 km/h 17.7 km/h 57% 0.0 mm 0 W/m2
21:39 19 °C 10.5 °C 1021.3 hPa West 11.1 km/h 11.3 km/h 58% 0.0 mm 0 W/m2
21:44 18.9 °C 10.7 °C 1021.3 hPa West 4.7 km/h 11.3 km/h 59% 0.0 mm 0 W/m2
21:49 18.9 °C 10.7 °C 1021.3 hPa West 6.4 km/h 17.7 km/h 59% 0.0 mm 0 W/m2
21:54 18.9 °C 11 °C 1021.3 hPa WSW 6.4 km/h 19.3 km/h 60% 0.0 mm 0 W/m2
21:59 18.9 °C 11.2 °C 1021.3 hPa West 6.4 km/h 9.7 km/h 61% 0.0 mm 0 W/m2
22:05 18.9 °C 11.2 °C 1021.3 hPa West 11.1 km/h 19.3 km/h 61% 0.0 mm 0 W/m2
22:10 18.9 °C 11.5 °C 1021.7 hPa West 6.4 km/h 12.9 km/h 62% 0.0 mm 0 W/m2
22:15 18.8 °C 11.4 °C 1021.7 hPa SW 3.2 km/h 11.3 km/h 62% 0.0 mm 0 W/m2
22:20 18.7 °C 11.5 °C 1021.7 hPa WNW 7.9 km/h 14.5 km/h 63% 0.0 mm 0 W/m2
22:25 18.7 °C 11.5 °C 1021.7 hPa West 9.7 km/h 16.1 km/h 63% 0.0 mm 0 W/m2
22:30 18.7 °C 11.5 °C 1021.7 hPa WNW 3.2 km/h 12.9 km/h 63% 0.0 mm 0 W/m2
22:35 18.6 °C 11.7 °C 1021.7 hPa WNW 3.2 km/h 11.3 km/h 64% 0.0 mm 0 W/m2
22:40 18.4 °C 11.5 °C 1021.7 hPa WSW 7.9 km/h 12.9 km/h 64% 0.0 mm 0 W/m2
22:45 18.3 °C 11.6 °C 1021.7 hPa WSW 7.9 km/h 11.3 km/h 65% 0.0 mm 0 W/m2
22:50 18.2 °C 11.5 °C 1021.7 hPa WNW 4.7 km/h 9.7 km/h 65% 0.0 mm 0 W/m2
22:55 18.1 °C 11.6 °C 1021.7 hPa WNW 3.2 km/h 11.3 km/h 66% 0.0 mm 0 W/m2
23:00 17.9 °C 11.5 °C 1021.7 hPa West 3.2 km/h 9.7 km/h 66% 0.0 mm 0 W/m2
23:05 17.8 °C 11.6 °C 1021.7 hPa WNW 3.2 km/h 9.7 km/h 67% 0.0 mm 0 W/m2
23:10 17.6 °C 11.4 °C 1021.7 hPa West 3.2 km/h 4.8 km/h 67% 0.0 mm 0 W/m2
23:15 17.4 °C 11.4 °C 1021.7 hPa West 3.2 km/h 9.7 km/h 68% 0.0 mm 0 W/m2
23:20 17.2 °C 11.2 °C 1021.7 hPa West 4.7 km/h 4.8 km/h 68% 0.0 mm 0 W/m2
23:25 17.1 °C 11.4 °C 1021.7 hPa West 4.7 km/h 9.7 km/h 69% 0.0 mm 0 W/m2
23:30 16.9 °C 11.4 °C 1021.7 hPa WNW 4.7 km/h 8 km/h 70% 0.0 mm 0 W/m2
23:36 16.9 °C 11.4 °C 1021.7 hPa West 3.2 km/h 4.8 km/h 70% 0.0 mm 0 W/m2
23:41 17 °C 11.3 °C 1021.7 hPa WNW 4.7 km/h 4.8 km/h 69% 0.0 mm 0 W/m2
23:46 17 °C 11.3 °C 1021.7 hPa WNW 3.2 km/h 6.4 km/h 69% 0.0 mm 0 W/m2
23:51 17 °C 11.1 °C 1021.7 hPa WNW 1.4 km/h 6.4 km/h 68% 0.0 mm 0 W/m2
23:56 16.9 °C 11 °C 1021.7 hPa West 1.4 km/h 4.8 km/h 68% 0.0 mm 0 W/m2
Juneau County Weather
Compliments of Weather Underground - 4 mb